Weather History for Springfield, MO

Change the Weather History Date:

Monday, September 17, 2012

  Actual Average Record
Temperature  
Mean Temperature 68 °F 68 °F  
Max Temperature 74 °F 80 °F 96 °F (1953)
Min Temperature 61 °F 57 °F 39 °F (1903)
Degree Days  
Heating Degree Days 0 2  
Month to date heating degree days 14 11  
Since 1 July heating degree days 14 13  
Cooling Degree Days 3 5  
Month to date cooling degree days 127 126  
Year to date cooling degree days 1717 1312  
Growing Degree Days 17 (Base 50)    
Moisture  
Dew Point 61 °F    
Average Humidity 82    
Maximum Humidity 100    
Minimum Humidity 64    
Precipitation  
Precipitation 0.00 in 0.16 in 2.13 in (2006)
Month to date precipitation 3.55 2.64  
Year to date precipitation 22.96 32.75  
Snow  
Snow 0.00 in - - ()
Month to date snowfall 0.0  
Since 1 July snowfall 0.0  
Since 1 September snowfall 0.0  
Snow Depth 0.00 in    
Sea Level Pressure  
Sea Level Pressure 29.92 in    
Wind  
Wind Speed 3 mph (WNW)    
Max Wind Speed 20 mph    
Max Gust Speed 24 mph    
Visibility 7 miles    
Events Fog    
T = Trace of Precipitation, MM = Missing Value Source: NWS Daily Summary

Daily Weather History Graph

Daily Weather History Graph

Search for Another Location

Airport:

Trip Planner

Search our weather history database for the weather conditions in past years. The results will help you decide how hot, cold, wet, or windy it might be!

Date:

Astronomy

Sep. 17, 2012 Rise Set
Actual Time 6:57 AM CDT 7:17 PM CDT
Civil Twilight 6:31 AM CDT 7:43 PM CDT
Nautical Twilight 6:01 AM CDT 8:13 PM CDT
Astronomical Twilight 5:29 AM CDT 8:44 PM CDT
Moon 8:43 AM CDT (9/17) 8:04 PM CDT (9/17)
Length of Visible Light 13h 11m
Length of Day
12h 19m
Waxing Crescent, 3% of the Moon is Illuminated
Sep 17
Waxing Crescent
Sep 22
First Quarter
Sep 29
Full
Oct 8
Last Quarter
Oct 15
New

Hourly Weather History & Observations

Time (CDT) Temp. Dew Point Humidity Pressure Visibility Wind Dir Wind Speed Gust Speed Precip Events Conditions
12:52 AM 64.9 °F 64.0 °F 97% 29.96 in 6.0 mi SSE 4.6 mph - N/A   Overcast
1:52 AM 66.0 °F 64.0 °F 93% 29.95 in 6.0 mi SSE 6.9 mph - N/A   Overcast
2:52 AM 64.9 °F 64.0 °F 97% 29.95 in 4.0 mi South 5.8 mph - N/A   Overcast
3:47 AM 64.4 °F 64.4 °F 100% 29.95 in 6.0 mi Calm Calm - N/A   Overcast
3:52 AM 64.9 °F 63.0 °F 93% 29.92 in 7.0 mi Calm Calm - N/A   Overcast
4:15 AM 64.4 °F 62.6 °F 94% 29.94 in 6.0 mi South 3.5 mph - N/A   Scattered Clouds
4:52 AM 63.0 °F 61.0 °F 93% 29.91 in 5.0 mi Calm Calm - N/A   Clear
4:57 AM 62.6 °F 62.6 °F 100% 29.94 in 1.8 mi Calm Calm - N/A   Clear
5:13 AM 62.6 °F 60.8 °F 94% 29.94 in 1.0 mi Calm Calm - N/A   Mist
5:20 AM 62.6 °F 60.8 °F 94% 29.94 in 0.5 mi Calm Calm - N/A Fog Fog
5:30 AM 62.6 °F 60.8 °F 94% 29.94 in 0.5 mi Calm Calm - N/A Fog Fog
5:37 AM 62.6 °F 60.8 °F 94% 29.94 in 0.5 mi Calm Calm - N/A Fog Fog
5:52 AM 62.1 °F 61.0 °F 96% 29.92 in 0.5 mi Calm Calm - N/A Fog Fog
6:14 AM 62.6 °F 60.8 °F 94% 29.94 in 1.5 mi Calm Calm - N/A   Overcast
6:21 AM 62.6 °F 60.8 °F 94% 29.94 in 1.0 mi Calm Calm - N/A   Overcast
6:29 AM 62.6 °F 60.8 °F 94% 29.95 in 0.8 mi Calm Calm - N/A   Overcast
6:52 AM 62.6 °F 60.8 °F 94% 29.95 in 0.5 mi Calm Calm - N/A Fog Fog
6:59 AM 62.6 °F 60.8 °F 94% 29.95 in 1.0 mi Calm Calm - N/A   Overcast
7:38 AM 62.6 °F 62.6 °F 100% 29.95 in 5.0 mi West 4.6 mph - N/A   Overcast
7:52 AM 63.0 °F 62.1 °F 97% 29.93 in 6.0 mi West 4.6 mph - N/A   Overcast
8:10 AM 62.6 °F 62.6 °F 100% 29.95 in 5.0 mi West 4.6 mph - N/A   Overcast
8:30 AM 64.4 °F 62.6 °F 94% 29.95 in 6.0 mi West 4.6 mph - N/A   Overcast
8:52 AM 64.4 °F 60.8 °F 88% 29.95 in 7.0 mi WNW 3.5 mph - N/A   Overcast
9:52 AM 66.0 °F 61.0 °F 84% 29.93 in 10.0 mi NW 6.9 mph - N/A   Overcast
10:07 AM 66.2 °F 60.8 °F 83% 29.96 in 10.0 mi NNW 6.9 mph - N/A   Overcast
10:18 AM 66.2 °F 60.8 °F 83% 29.96 in 10.0 mi NW 5.8 mph - N/A   Overcast
10:47 AM 66.2 °F 60.8 °F 83% 29.95 in 10.0 mi NW 5.8 mph - N/A   Overcast
10:52 AM 66.9 °F 60.1 °F 79% 29.94 in 10.0 mi NNW 5.8 mph - N/A   Overcast
11:00 AM 66.2 °F 60.8 °F 83% 29.96 in 10.0 mi NW 4.6 mph - N/A   Overcast
11:13 AM 68.0 °F 60.8 °F 78% 29.96 in 10.0 mi Variable 3.5 mph - N/A   Overcast
11:52 AM 69.1 °F 59.0 °F 70% 29.93 in 10.0 mi Calm Calm - N/A   Overcast
12:52 PM 71.1 °F 60.1 °F 68% 29.89 in 10.0 mi Calm Calm - N/A   Scattered Clouds
1:52 PM 72.0 °F 60.1 °F 66% 29.87 in 10.0 mi WNW 4.6 mph - N/A   Overcast
2:52 PM 71.1 °F 60.1 °F 68% 29.86 in 10.0 mi NW 3.5 mph - N/A   Overcast
3:52 PM 71.1 °F 59.0 °F 66% 29.84 in 10.0 mi West 3.5 mph - N/A   Overcast
4:52 PM 73.9 °F 60.1 °F 62% 29.82 in 10.0 mi Calm Calm - N/A   Overcast
5:29 PM 71.6 °F 60.8 °F 69% 29.84 in 10.0 mi NNE 3.5 mph - N/A   Overcast
5:52 PM 73.9 °F 61.0 °F 64% 29.82 in 10.0 mi Calm Calm - N/A   Overcast
6:52 PM 71.1 °F 61.0 °F 70% 29.83 in 10.0 mi Calm Calm - N/A   Mostly Cloudy
7:52 PM 68.0 °F 61.0 °F 78% 29.84 in 10.0 mi Calm Calm - N/A   Clear
8:52 PM 63.0 °F 59.0 °F 87% 29.84 in 10.0 mi Calm Calm - N/A   Clear
9:52 PM 64.9 °F 60.1 °F 84% 29.86 in 10.0 mi Calm Calm - N/A   Scattered Clouds
10:48 PM 64.4 °F 59.0 °F 83% 29.90 in 10.0 mi North 12.7 mph - N/A   Partly Cloudy
10:52 PM 63.0 °F 59.0 °F 87% 29.88 in 10.0 mi North 11.5 mph - N/A   Partly Cloudy
11:52 PM 63.0 °F 57.9 °F 84% 29.89 in 10.0 mi North 10.4 mph - N/A   Overcast